tititudorancea.com
Station Historical Data
Daily Summary for September 18, 2018 Units:  Metric    English   Both
« Previous Day
Next Day »
Daily Weekly Monthly Yearly Custom
  High: Low: Average:
Temperature: -17.8 °C 7.3 °C 10.5 °C
Dew Point: -17.8 °C -2.9 °C 1.9 °C
Humidity: Humidity % 40 % 57 %
Wind Speed: 0 km/h 5.6 km/h 18 km/h
Wind Gust: 0 km/h - -
Wind:- - WNW
Pressure: 0 hPa 1006.7 hPa -
Precipitation: 0.2 mm    
Historical Graphs
 
 
Ararat weather Find more about Weather in Ararat, AU


 



 


Tabular Data for September 18, 2018
Time Temperature Dew Point Pressure Wind Wind Speed Wind Gust Humidity Rainfall Rate (Hourly)
-17.8 °C -17.8 °C 0 hPa Calm     Humidity % 0 mm
00:04 10.6 °C -0.2 °C 1012.1 hPa North 5.6 km/h 3.9 km/h 47 % 0 mm
00:09 10.6 °C -0.3 °C 1012.1 hPa North 9.7 km/h 3.5 km/h 47 % 0 mm
00:14 10.4 °C -0.4 °C 1011.7 hPa North 5.6 km/h 1.6 km/h 47 % 0 mm
00:19 10.4 °C -0.2 °C 1011.7 hPa North 5.6 km/h 3.7 km/h 48 % 0 mm
00:24 10.4 °C -0.2 °C 1011.7 hPa North 5.6 km/h 3.2 km/h 48 % 0 mm
00:29 10.4 °C -0.2 °C 1011.7 hPa North 9.3 km/h 3.9 km/h 48 % 0 mm
00:34 10.4 °C -0.4 °C 1011.7 hPa North 7.4 km/h 4.7 km/h 47 % 0 mm
00:39 10.4 °C -0.4 °C 1011.7 hPa North 12.9 km/h 5.6 km/h 47 % 0 mm
00:44 10.4 °C -0.4 °C 1011.7 hPa North 12.9 km/h 8.9 km/h 47 % 0 mm
00:49 10.6 °C -0.6 °C 1011.7 hPa North 9.3 km/h 8.7 km/h 46 % 0 mm
00:54 10.7 °C -0.5 °C 1011.7 hPa North 9.7 km/h 6.1 km/h 46 % 0 mm
00:59 10.6 °C -0.6 °C 1011.7 hPa North 9.3 km/h 5.3 km/h 46 % 0 mm
01:04 10.7 °C -0.5 °C 1011.7 hPa North 9.3 km/h 5.5 km/h 46 % 0 mm
01:09 10.7 °C -0.7 °C 1011.4 hPa NNW 16.7 km/h 8.9 km/h 45 % 0 mm
01:14 10.8 °C -0.7 °C 1011.4 hPa NNW 11.1 km/h 6.1 km/h 45 % 0 mm
01:19 10.8 °C -0.7 °C 1011.4 hPa NNW 18.5 km/h 6.9 km/h 45 % 0 mm
01:24 10.8 °C -0.9 °C 1011.4 hPa North 9.3 km/h 8.7 km/h 44 % 0 mm
01:29 10.8 °C -1 °C 1011.4 hPa NNW 14.5 km/h 9.3 km/h 44 % 0 mm
01:34 10.9 °C -1.2 °C 1011.1 hPa NNW 13 km/h 8.7 km/h 43 % 0 mm
01:39 11 °C -1.4 °C 1011.1 hPa North 16.7 km/h 9.5 km/h 42 % 0 mm
01:44 11.1 °C -1.4 °C 1011.1 hPa North 18.5 km/h 7.6 km/h 42 % 0 mm
01:49 11.1 °C -1.4 °C 1011.1 hPa North 18.5 km/h 8.5 km/h 42 % 0 mm
01:54 11 °C -1.4 °C 1011.1 hPa North 9.3 km/h 7.7 km/h 42 % 0 mm
01:59 10.9 °C -1.5 °C 1011.1 hPa North 13 km/h 7.1 km/h 42 % 0 mm
02:04 10.9 °C -1.6 °C 1011.1 hPa NNW 14.8 km/h 9.3 km/h 42 % 0 mm
02:09 10.8 °C -1.6 °C 1010.7 hPa NNW 9.3 km/h 5.1 km/h 42 % 0 mm
02:14 10.8 °C -1.9 °C 1010.7 hPa North 13 km/h 7.4 km/h 41 % 0 mm
02:19 10.7 °C -2 °C 1010.7 hPa NNW 14.5 km/h 6.6 km/h 41 % 0 mm
02:24 10.8 °C -1.9 °C 1010.7 hPa NNW 18.5 km/h 6.6 km/h 41 % 0 mm
02:29 10.7 °C -2 °C 1010.7 hPa NNW 16.7 km/h 6.1 km/h 41 % 0 mm
02:34 10.7 °C -2 °C 1010.4 hPa North 14.8 km/h 8.5 km/h 41 % 0 mm
02:39 10.7 °C -2 °C 1010.4 hPa North 11.1 km/h 7.4 km/h 41 % 0 mm
02:44 10.8 °C -1.9 °C 1010.4 hPa NNW 14.8 km/h 9.7 km/h 41 % 0 mm
02:49 10.8 °C -2.3 °C 1010.4 hPa NNW 18.5 km/h 14.3 km/h 40 % 0 mm
02:54 10.7 °C -2.3 °C 1010.4 hPa North 20.4 km/h 13.5 km/h 40 % 0 mm
02:59 10.6 °C -2.1 °C 1010.4 hPa North 18.5 km/h 12.1 km/h 41 % 0 mm
03:04 10.5 °C -2.2 °C 1010 hPa North 18.5 km/h 11.3 km/h 41 % 0 mm
03:09 10.3 °C -2.4 °C 1010 hPa NNW 20.4 km/h 9.8 km/h 41 % 0 mm
03:14 10.3 °C -2.1 °C 1009.7 hPa NNW 13 km/h 12.2 km/h 42 % 0 mm
03:19 10.2 °C -2.2 °C 1009.7 hPa North 20.4 km/h 9.8 km/h 42 % 0 mm
03:24 10.1 °C -2.3 °C 1009.7 hPa NNW 16.7 km/h 9.5 km/h 42 % 0 mm
03:29 10 °C -2.3 °C 1009.7 hPa NNW 13 km/h 9 km/h 42 % 0 mm
03:34 9.9 °C -2.4 °C 1009.7 hPa NNW 16.7 km/h 12.4 km/h 42 % 0 mm
03:39 9.8 °C -2.2 °C 1009.7 hPa North 14.8 km/h 10.1 km/h 43 % 0 mm
03:44 9.7 °C -2.3 °C 1009.7 hPa NNW 9.7 km/h 8.5 km/h 43 % 0 mm
03:49 9.5 °C -2.2 °C 1009.7 hPa North 13 km/h 9.2 km/h 44 % 0 mm
03:54 9.4 °C -2.3 °C 1009.7 hPa North 14.8 km/h 6.6 km/h 44 % 0 mm
03:59 9.2 °C -2.1 °C 1009.7 hPa NNW 9.3 km/h 6.9 km/h 45 % 0 mm
04:04 9.1 °C -2.3 °C 1009.4 hPa North 16.7 km/h 8 km/h 45 % 0 mm
04:09 8.9 °C -2.4 °C 1009.4 hPa North 13 km/h 6.6 km/h 45 % 0 mm
04:14 8.8 °C -2.2 °C 1009.4 hPa NNW 11.3 km/h 10.5 km/h 46 % 0 mm
04:19 8.8 °C -2.2 °C 1009 hPa NNW 13 km/h 11.4 km/h 46 % 0 mm
04:24 8.8 °C -2.2 °C 1009 hPa North 13 km/h 10.1 km/h 46 % 0 mm
04:29 8.9 °C -2.4 °C 1009 hPa NNW 14.8 km/h 9 km/h 45 % 0 mm
04:34 8.9 °C -2.4 °C 1009.4 hPa NNW 13 km/h 8.2 km/h 45 % 0 mm
04:39 8.9 °C -2.4 °C 1009.4 hPa NNW 9.3 km/h 6.4 km/h 45 % 0 mm
04:44 8.8 °C -2.5 °C 1009.4 hPa NNW 16.7 km/h 10.9 km/h 45 % 0 mm
04:49 8.7 °C -2.3 °C 1009.4 hPa NNW 13 km/h 10 km/h 46 % 0 mm
04:54 8.7 °C -2.3 °C 1009.4 hPa North 16.7 km/h 8.5 km/h 46 % 0 mm
04:59 8.7 °C -2.3 °C 1009.4 hPa NNW 16.7 km/h 9.7 km/h 46 % 0 mm
05:04 8.6 °C -2.4 °C 1009.7 hPa North 18.5 km/h 10.5 km/h 46 % 0 mm
05:09 8.6 °C -2.7 °C 1009.4 hPa North 16.7 km/h 11.1 km/h 45 % 0 mm
05:14 8.6 °C -2.4 °C 1009.4 hPa NNW 18.5 km/h 9.3 km/h 46 % 0 mm
05:19 8.6 °C -2.4 °C 1009.4 hPa NNW 18.5 km/h 9.2 km/h 46 % 0 mm
05:24 8.4 °C -2.6 °C 1009.4 hPa NNW 13 km/h 9.8 km/h 46 % 0 mm
05:29 8.3 °C -2.4 °C 1009.4 hPa North 19.3 km/h 11.1 km/h 47 % 0 mm
05:34 8.3 °C -2.6 °C 1009.4 hPa North 16.7 km/h 8.7 km/h 46 % 0 mm
05:39 8.3 °C -2.6 °C 1009.4 hPa North 18.5 km/h 9.8 km/h 46 % 0 mm
05:44 8.3 °C -2.7 °C 1009.4 hPa North 18.5 km/h 11.4 km/h 46 % 0 mm
05:49 8.3 °C -2.7 °C 1009.4 hPa North 16.1 km/h 14.3 km/h 46 % 0 mm
05:54 8.2 °C -2.7 °C 1009.4 hPa North 16.7 km/h 12.7 km/h 46 % 0 mm
05:59 8.2 °C -2.8 °C 1009.4 hPa North 18.5 km/h 11.9 km/h 46 % 0 mm
06:04 8.1 °C -2.6 °C 1009 hPa North 24.1 km/h 9.5 km/h 47 % 0 mm
06:09 7.9 °C -2.7 °C 1009 hPa North 14.8 km/h 10.5 km/h 47 % 0 mm
06:14 7.9 °C -2.4 °C 1009 hPa North 18.5 km/h 7.2 km/h 48 % 0 mm
06:19 7.8 °C -2.6 °C 1009 hPa North 16.7 km/h 9.7 km/h 48 % 0 mm
06:24 7.7 °C -2.6 °C 1009 hPa North 11.1 km/h 6.1 km/h 48 % 0 mm
06:29 7.7 °C -2.7 °C 1009 hPa North 9.3 km/h 7.7 km/h 48 % 0 mm
06:34 7.7 °C -2.9 °C 1009 hPa North 13 km/h 6.6 km/h 47 % 0 mm
06:39 7.7 °C -2.7 °C 1009 hPa North 9.7 km/h 7.4 km/h 48 % 0 mm
06:44 7.8 °C -2.8 °C 1009 hPa North 13 km/h 5.1 km/h 47 % 0 mm
06:49 7.8 °C -2.6 °C 1009 hPa North 9.3 km/h 5.1 km/h 48 % 0 mm
06:54 7.8 °C -2.5 °C 1009 hPa North 9.3 km/h 6.6 km/h 48 % 0 mm
06:59 8.1 °C -2.6 °C 1009.7 hPa North 11.3 km/h 9.3 km/h 47 % 0 mm
07:04 8.1 °C -2.6 °C 1009.4 hPa North 11.3 km/h 5.8 km/h 47 % 0 mm
07:09 8.1 °C -2.6 °C 1009.4 hPa North 11.1 km/h 5.3 km/h 47 % 0 mm
07:14 8.1 °C -2.6 °C 1009.4 hPa North 7.4 km/h 7.1 km/h 47 % 0 mm
07:19 8.1 °C -2.6 °C 1009.4 hPa North 11.1 km/h 6.6 km/h 47 % 0 mm
07:24 8.1 °C -2.6 °C 1009.4 hPa North 12.9 km/h 9.8 km/h 47 % 0 mm
07:29 8.2 °C -2.5 °C 1009.4 hPa North 11.3 km/h 5.8 km/h 47 % 0 mm
07:34 8.2 °C -2.5 °C 1009 hPa North 13 km/h 5.3 km/h 47 % 0 mm
07:39 8.2 °C -2.4 °C 1009.4 hPa North 9.3 km/h 6.9 km/h 47 % 0 mm
07:44 8.4 °C -2.3 °C 1009 hPa North 9.3 km/h 5.1 km/h 47 % 0 mm
07:49 8.7 °C -2.3 °C 1009 hPa NNW 11.1 km/h 12.6 km/h 46 % 0 mm
07:54 8.9 °C -2.4 °C 1009 hPa NNW 13 km/h 10 km/h 45 % 0 mm
07:59 9.1 °C -2.6 °C 1009 hPa NNW 16.7 km/h 12.7 km/h 44 % 0 mm
08:04 9.3 °C -2.4 °C 1008.7 hPa NNW 24.1 km/h 14.8 km/h 44 % 0 mm
08:09 9.6 °C -2.4 °C 1008.7 hPa North 20.4 km/h 11.7 km/h 43 % 0 mm
08:14 9.7 °C -2.3 °C 1008.7 hPa NNW 18.5 km/h 13 km/h 43 % 0 mm
08:19 9.8 °C -2.2 °C 1008.7 hPa NNW 19.3 km/h 15 km/h 43 % 0 mm
08:24 9.8 °C -2.2 °C 1008.7 hPa NNW 22.2 km/h 14.5 km/h 43 % 0 mm
08:29 9.8 °C -2.2 °C 1009 hPa NNW 20.4 km/h 16.3 km/h 43 % 0 mm
08:34 10 °C -2 °C 1008.7 hPa NNW 25.9 km/h 15 km/h 43 % 0 mm
08:39 10.2 °C -1.8 °C 1008.7 hPa NNW 24.1 km/h 18.8 km/h 43 % 0 mm
08:44 10.2 °C -2.2 °C 1008.7 hPa North 31.5 km/h 31.5 km/h 42 % 0 mm
08:49 10.3 °C -2.1 °C 1008.7 hPa North 24.1 km/h 11.7 km/h 42 % 0 mm
08:54 10.3 °C -2.1 °C 1009 hPa NW 24.1 km/h 17.1 km/h 42 % 0 mm
08:59 10.2 °C -2.2 °C 1009 hPa North 20.4 km/h 18.5 km/h 42 % 0 mm
09:04 10.3 °C -2.1 °C 1009 hPa NNW 27.8 km/h 20 km/h 42 % 0 mm
09:09 10.2 °C -1.9 °C 1009 hPa North 25.9 km/h 13.7 km/h 43 % 0 mm
09:14 10.3 °C -1.8 °C 1009 hPa NNW 24.1 km/h 14 km/h 43 % 0 mm
09:19 10.6 °C -1.4 °C 1008.7 hPa North 27.8 km/h 19.8 km/h 43 % 0 mm
09:24 10.8 °C -1.6 °C 1008.7 hPa North 22.2 km/h 17.2 km/h 42 % 0 mm
09:29 10.7 °C -1.1 °C 1008.7 hPa NNW 22.2 km/h 15.6 km/h 44 % 0 mm
09:34 10.8 °C -1.3 °C 1008.7 hPa North 25.9 km/h 18.2 km/h 43 % 0 mm
09:39 10.7 °C -1.4 °C 1008.7 hPa North 20.9 km/h 18.3 km/h 43 % 0 mm
09:44 10.7 °C -1.1 °C 1008.7 hPa North 29.6 km/h 11.9 km/h 44 % 0 mm
09:49 10.9 °C -1.2 °C 1008.7 hPa NNW 24.1 km/h 14.6 km/h 43 % 0 mm
09:54 11.1 °C -0.7 °C 1008.7 hPa NNW 20.4 km/h 17.5 km/h 44 % 0 mm
09:59 11.3 °C -0.6 °C 1008.4 hPa NNW 18.5 km/h 12.4 km/h 44 % 0 mm
10:04 11.4 °C -0.4 °C 1008.7 hPa North 22.2 km/h 16.4 km/h 44 % 0 mm
10:09 11.7 °C -0.8 °C 1008.7 hPa NNW 22.2 km/h 14.3 km/h 42 % 0 mm
10:14 11.8 °C -0.3 °C 1008.7 hPa North 20.4 km/h 10.5 km/h 43 % 0 mm
10:19 12.1 °C -0.4 °C 1008.4 hPa North 25.9 km/h 18 km/h 42 % 0 mm
10:24 12.1 °C -0.5 °C 1008.4 hPa NW 25.9 km/h 22.5 km/h 42 % 0 mm
10:29 12.1 °C -0.5 °C 1008 hPa NNE 24.1 km/h 15.1 km/h 42 % 0 mm
10:34 12.1 °C 0.2 °C 1008.4 hPa NNW 20.4 km/h 14 km/h 44 % 0 mm
10:39 12.1 °C 0.2 °C 1008.7 hPa North 29.6 km/h 18.2 km/h 44 % 0 mm
10:44 11.9 °C 0.3 °C 1008.4 hPa NNW 25.9 km/h 15.1 km/h 45 % 0 mm
10:49 11.8 °C 0.5 °C 1008.4 hPa NNW 20.4 km/h 14.2 km/h 46 % 0 mm
10:54 11.9 °C 0.9 °C 1008.4 hPa NNE 20.4 km/h 15.4 km/h 47 % 0 mm
10:59 11.9 °C 0.9 °C 1008.4 hPa NNW 18.5 km/h 13.7 km/h 47 % 0 mm
11:04 12.1 °C 1.4 °C 1008.7 hPa North 18.5 km/h 16.1 km/h 48 % 0 mm
11:09 11.9 °C 1.8 °C 1008.7 hPa North 18.5 km/h 11.3 km/h 50 % 0 mm
11:14 12.2 °C 2.4 °C 1008.7 hPa North 18.5 km/h 14.5 km/h 51 % 0 mm
11:19 12.7 °C 2.2 °C 1008.7 hPa North 18.5 km/h 11.7 km/h 49 % 0 mm
11:24 13.1 °C 2.3 °C 1008.7 hPa North 27.8 km/h 15.8 km/h 48 % 0 mm
11:29 13.6 °C 3.3 °C 1008.7 hPa NNW 31.5 km/h 15.3 km/h 50 % 0 mm
11:34 13.6 °C 4.2 °C 1008.7 hPa NW 18.5 km/h 11.6 km/h 53 % 0 mm
11:39 13.8 °C 4.3 °C 1008.4 hPa North 18.5 km/h 15.6 km/h 53 % 0 mm
11:44 13.8 °C 4.6 °C 1008.4 hPa NNW 25.9 km/h 9.5 km/h 54 % 0 mm
11:49 13.5 °C 4.4 °C 1008.7 hPa NW 19.3 km/h 16.9 km/h 54 % 0 mm
11:54 13.3 °C 4.7 °C 1008.4 hPa North 19.3 km/h 11.1 km/h 56 % 0 mm
11:59 13.4 °C 4.6 °C 1008.4 hPa North 22.5 km/h 16.4 km/h 55 % 0 mm
12:04 13.1 °C 4.5 °C 1008.7 hPa NNW 16.7 km/h 10.9 km/h 56 % 0 mm
12:09 13.2 °C 4.8 °C 1008.7 hPa NNW 16.1 km/h 11.6 km/h 57 % 0 mm
12:14 13.2 °C 4.9 °C 1008.7 hPa NNW 18.5 km/h 20.1 km/h 57 % 0 mm
12:19 13.1 °C 4.8 °C 1008.7 hPa NNW 27.8 km/h 11.9 km/h 57 % 0 mm
12:24 13.1 °C 5 °C 1008.4 hPa NW 13 km/h 5.3 km/h 58 % 0 mm
12:29 13.4 °C 5.1 °C 1008 hPa NNW 19.3 km/h 11.1 km/h 57 % 0 mm
12:34 13.8 °C 5.4 °C 1008.4 hPa NNW 18.5 km/h 13.4 km/h 57 % 0 mm
12:39 13.9 °C 5 °C 1008 hPa North 25.9 km/h 16.3 km/h 55 % 0 mm
12:44 13.9 °C 5.2 °C 1008.4 hPa NNE 20.4 km/h 7.9 km/h 56 % 0 mm
12:49 14.1 °C 5.9 °C 1008 hPa North 29 km/h 19 km/h 58 % 0 mm
12:54 14.3 °C 5.6 °C 1008.4 hPa North 27.8 km/h 18.8 km/h 56 % 0 mm
12:59 14.3 °C 5.7 °C 1008 hPa North 18.5 km/h 12.7 km/h 56 % 0 mm
13:04 14.8 °C 6.1 °C 1008 hPa NNW 16.7 km/h 10.3 km/h 56 % 0 mm
13:09 14.4 °C 5.7 °C 1008 hPa North 20.9 km/h 16.6 km/h 56 % 0 mm
13:14 13.9 °C 5.6 °C 1008 hPa NNW 20.4 km/h 12.1 km/h 57 % 0 mm
13:19 13.9 °C 6.2 °C 1007.7 hPa North 17.7 km/h 14 km/h 60 % 0 mm
13:24 13.8 °C 6.2 °C 1007.7 hPa North 22.2 km/h 12.9 km/h 60 % 0 mm
13:29 13.9 °C 6.1 °C 1007.3 hPa North 31.5 km/h 17.7 km/h 59 % 0 mm
13:34 13.9 °C 6.1 °C 1007.3 hPa North 25.9 km/h 18.8 km/h 59 % 0 mm
13:39 14.1 °C 6.2 °C 1007 hPa NW 19.3 km/h 17.2 km/h 59 % 0 mm
13:44 14.1 °C 6.2 °C 1007 hPa NNW 19.3 km/h 16.9 km/h 59 % 0 mm
13:49 14.3 °C 6.4 °C 1007 hPa North 18.5 km/h 10.6 km/h 59 % 0 mm
13:54 14.6 °C 6.4 °C 1007 hPa NNW 29.6 km/h 19.6 km/h 58 % 0 mm
13:59 15.1 °C 6.8 °C 1007 hPa NNW 25.9 km/h 12.9 km/h 58 % 0 mm
14:04 15.1 °C 6.1 °C 1007 hPa NW 31.5 km/h 22.5 km/h 55 % 0 mm
14:09 14.4 °C 6 °C 1007 hPa NNW 25.9 km/h 21.1 km/h 57 % 0 mm
14:14 14.6 °C 6.2 °C 1007 hPa North 29.6 km/h 19.6 km/h 57 % 0 mm
14:19 14.5 °C 6.8 °C 1007 hPa North 20.4 km/h 12.4 km/h 60 % 0 mm
14:24 14.4 °C 6.8 °C 1007 hPa NNE 24.1 km/h 17.7 km/h 60 % 0 mm
14:29 14.2 °C 6.8 °C 1007 hPa North 20.4 km/h 10.1 km/h 61 % 0 mm
14:34 14 °C 6.8 °C 1007 hPa North 27.8 km/h 16.7 km/h 62 % 0 mm
14:39 13.8 °C 7.1 °C 1006.7 hPa North 18.5 km/h 16.9 km/h 64 % 0 mm
14:44 13.9 °C 7.2 °C 1006.7 hPa NNE 25.7 km/h 18.5 km/h 64 % 0 mm
14:49 13.9 °C 6.9 °C 1006.7 hPa NNW 24.1 km/h 14.2 km/h 63 % 0 mm
14:54 13.8 °C 7.1 °C 1007 hPa NNW 18.5 km/h 10.1 km/h 64 % 0 mm
14:59 13.9 °C 7 °C 1007 hPa North 29.6 km/h 19.3 km/h 63 % 0 mm
15:04 13.9 °C 6.9 °C 1007 hPa North 16.7 km/h 9.8 km/h 63 % 0 mm
15:09 13.8 °C 7.1 °C 1007 hPa NNW 20.4 km/h 15 km/h 64 % 0 mm
15:14 14.3 °C 7.3 °C 1007 hPa NNW 17.7 km/h 15 km/h 63 % 0 mm
15:19 14.7 °C 7 °C 1007 hPa NW 24.1 km/h 12.6 km/h 60 % 0 mm
15:24 14.7 °C 6.3 °C 1007 hPa NW 20.9 km/h 15 km/h 57 % 0 mm
15:29 14.7 °C 6.6 °C 1007 hPa NW 18.5 km/h 9.5 km/h 58 % 0 mm
15:34 14.7 °C 4.9 °C 1006.7 hPa NW 25.9 km/h 14.5 km/h 52 % 0 mm
15:39 14.7 °C 4.9 °C 1006.7 hPa North 20.4 km/h 13.4 km/h 52 % 0 mm
15:44 14.7 °C 4.1 °C 1007 hPa WNW 20.4 km/h 12.7 km/h 49 % 0 mm
15:49 14.6 °C 3.7 °C 1007 hPa WNW 22.2 km/h 18 km/h 48 % 0 mm
15:54 14.5 °C 3.6 °C 1007 hPa WNW 25.9 km/h 19.8 km/h 48 % 0 mm
15:59 14.5 °C 3.3 °C 1006.7 hPa WNW 20.4 km/h 18 km/h 47 % 0 mm
16:04 14.4 °C 3.2 °C 1007 hPa NW 22.2 km/h 12.9 km/h 47 % 0 mm
16:09 14.3 °C 2.8 °C 1007 hPa NW 24.1 km/h 16.7 km/h 46 % 0 mm
16:14 14.2 °C 2.4 °C 1007 hPa North 24.1 km/h 12.1 km/h 45 % 0 mm
16:19 14.3 °C 2.8 °C 1007 hPa NW 16.1 km/h 14.6 km/h 46 % 0 mm
16:24 14.3 °C 2.5 °C 1007 hPa WNW 18.5 km/h 14.6 km/h 45 % 0 mm
16:29 14.2 °C 2.4 °C 1007 hPa NW 18.5 km/h 15.4 km/h 45 % 0 mm
16:34 14.1 °C 2.6 °C 1007 hPa WNW 22.2 km/h 14.6 km/h 46 % 0 mm
16:39 13.9 °C 2.8 °C 1007 hPa West 24.1 km/h 19.3 km/h 47 % 0 mm
16:44 13.7 °C 2.9 °C 1007.3 hPa West 24.1 km/h 15.1 km/h 48 % 0 mm
16:49 13.6 °C 3.4 °C 1007.3 hPa WNW 25.9 km/h 12.4 km/h 50 % 0 mm
16:54 13.5 °C 3.3 °C 1007.3 hPa North 22.2 km/h 19.5 km/h 50 % 0 mm
16:59 13.4 °C 3.5 °C 1007.3 hPa North 20.4 km/h 17.9 km/h 51 % 0 mm
17:04 13.2 °C 4.4 °C 1007.3 hPa WSW 20.4 km/h 14.6 km/h 55 % 0 mm
17:09 12.8 °C 4.8 °C 1007.7 hPa WSW 24.1 km/h 17.1 km/h 58 % 0 mm
17:14 12.7 °C 5.1 °C 1007.7 hPa West 22.2 km/h 12.7 km/h 60 % 0 mm
17:19 12.6 °C 5.2 °C 1007.7 hPa West 17.7 km/h 16.3 km/h 61 % 0 mm
17:24 12.4 °C 5.8 °C 1007.7 hPa WSW 22.5 km/h 15.6 km/h 64 % 0 mm
17:29 12.1 °C 5.7 °C 1008 hPa West 29.6 km/h 23.7 km/h 65 % 0 mm
17:34 11.8 °C 5.9 °C 1008 hPa WNW 20.4 km/h 21.9 km/h 67 % 0 mm
17:39 11.6 °C 5.9 °C 1008 hPa WNW 27.8 km/h 20 km/h 68 % 0 mm
17:44 11.3 °C 6.1 °C 1008 hPa WNW 29.6 km/h 25.7 km/h 70 % 0 mm
17:49 11.2 °C 5.9 °C 1008 hPa WNW 20.4 km/h 12.1 km/h 70 % 0 mm
17:54 11.2 °C 6.1 °C 1008 hPa WNW 20.4 km/h 14.3 km/h 71 % 0 mm
17:59 11.1 °C 6.3 °C 1008 hPa WNW 18.5 km/h 10.1 km/h 72 % 0 mm
18:04 11 °C 6.2 °C 1008 hPa WNW 24.1 km/h 20.4 km/h 72 % 0 mm
18:09 10.9 °C 5.9 °C 1008.4 hPa WNW 24.1 km/h 17.1 km/h 71 % 0 mm
18:14 10.9 °C 6.1 °C 1008.4 hPa WNW 25.9 km/h 16.7 km/h 72 % 0 mm
18:19 10.7 °C 6.3 °C 1008.4 hPa WNW 18.5 km/h 11.7 km/h 74 % 0 mm
18:24 10.5 °C 6.3 °C 1008.7 hPa West 27.8 km/h 24.6 km/h 75 % 0 mm
18:29 10.3 °C 6.4 °C 1008.7 hPa WNW 27.8 km/h 24.1 km/h 77 % 0 mm
18:34 9.9 °C 6.4 °C 1009 hPa WNW 29.6 km/h 15.9 km/h 79 % 0.2 mm
18:39 9.8 °C 6.5 °C 1009 hPa WNW 18.5 km/h 14.5 km/h 80 % 0.2 mm
18:44 9.7 °C 6.7 °C 1008.7 hPa WNW 14.5 km/h 8.2 km/h 82 % 0.2 mm
18:49 9.6 °C 6.8 °C 1009 hPa North 12.9 km/h 10.3 km/h 83 % 0.2 mm
18:54 9.5 °C 6.8 °C 1008.7 hPa NW 16.7 km/h 11.6 km/h 83 % 0.2 mm
18:59 9.4 °C 6.7 °C 1008.7 hPa North 13 km/h 6.4 km/h 83 % 0.2 mm
19:01 9.4 °C 6.7 °C 1008.7 hPa NW 13 km/h 8.5 km/h 83 % 0.2 mm
19:14 9.2 °C 6.7 °C 1009 hPa North 14.8 km/h 8 km/h 84 % 0.2 mm
19:19 9.2 °C 6.6 °C 1009 hPa NW 18.5 km/h 12.4 km/h 84 % 0.2 mm
19:24 9.1 °C 6.7 °C 1009 hPa NW 13 km/h 7.6 km/h 85 % 0.2 mm
19:29 9 °C 6.6 °C 1009 hPa NW 14.8 km/h 10.3 km/h 85 % 0.2 mm
19:34 8.9 °C 6.5 °C 1009 hPa NW 14.8 km/h 8.7 km/h 85 % 0.2 mm
19:39 8.8 °C 6.4 °C 1009 hPa NW 18.5 km/h 8.5 km/h 85 % 0.2 mm
19:44 8.8 °C 6.3 °C 1009 hPa NW 12.9 km/h 9 km/h 84 % 0 mm
19:49 8.7 °C 6.2 °C 1009.4 hPa NW 14.8 km/h 10.1 km/h 84 % 0 mm
19:54 8.8 °C 6.2 °C 1009.4 hPa WNW 16.7 km/h 14.2 km/h 84 % 0 mm
19:59 8.9 °C 6.2 °C 1009.4 hPa NW 13 km/h 7.4 km/h 83 % 0 mm
20:04 9 °C 6.3 °C 1009.7 hPa NW 13 km/h 8.4 km/h 83 % 0 mm
20:09 9.1 °C 6.2 °C 1009.7 hPa NW 14.8 km/h 7.2 km/h 82 % 0 mm
20:14 9.1 °C 6.2 °C 1009.7 hPa WNW 16.1 km/h 11.4 km/h 82 % 0 mm
20:19 9.1 °C 5.9 °C 1009.7 hPa WNW 27.8 km/h 17.4 km/h 81 % 0 mm
20:24 8.8 °C 5.9 °C 1009.7 hPa WNW 18.5 km/h 13.4 km/h 82 % 0 mm
20:29 8.6 °C 5.8 °C 1009.7 hPa WNW 13 km/h 11.6 km/h 83 % 0 mm
20:34 8.4 °C 5.9 °C 1009.7 hPa WNW 9.7 km/h 7.1 km/h 84 % 0 mm
20:39 8.4 °C 5.8 °C 1009.4 hPa North 13 km/h 8.9 km/h 84 % 0 mm
20:44 8.3 °C 5.7 °C 1009.7 hPa WNW 13 km/h 9.3 km/h 84 % 0 mm
20:49 8.2 °C 5.7 °C 1009.7 hPa North 13 km/h 9.5 km/h 84 % 0 mm
20:54 8.2 °C 5.7 °C 1009.7 hPa WNW 11.3 km/h 11.3 km/h 84 % 0 mm
20:59 8.2 °C 5.5 °C 1009.7 hPa North 14.8 km/h 11.6 km/h 83 % 0 mm
21:04 8.3 °C 5.4 °C 1009.7 hPa North 13 km/h 8.5 km/h 82 % 0 mm
21:09 8.3 °C 5.3 °C 1009.7 hPa WNW 14.8 km/h 8.5 km/h 81 % 0 mm
21:14 8.4 °C 5.4 °C 1009.7 hPa NW 11.1 km/h 6.3 km/h 81 % 0 mm
21:19 8.4 °C 5.4 °C 1009.7 hPa NW 13 km/h 9.8 km/h 81 % 0 mm
21:24 8.4 °C 5.3 °C 1009.7 hPa NW 14.8 km/h 12.7 km/h 81 % 0 mm
21:29 8.3 °C 5.3 °C 1009.7 hPa NW 9.7 km/h 8 km/h 81 % 0 mm
21:34 8.2 °C 5.3 °C 1009.7 hPa North 13 km/h 9.3 km/h 82 % 0 mm
21:39 8.1 °C 5.4 °C 1009.7 hPa NW 13 km/h 9.7 km/h 83 % 0 mm
21:44 8.1 °C 5.4 °C 1009.7 hPa NW 13 km/h 10 km/h 83 % 0 mm
21:49 8 °C 5.3 °C 1009.7 hPa North 16.7 km/h 7.7 km/h 83 % 0 mm
21:54 7.9 °C 5.2 °C 1010 hPa NW 18.5 km/h 11.1 km/h 83 % 0 mm
21:59 7.8 °C 5.1 °C 1010 hPa NW 12.9 km/h 12.4 km/h 83 % 0 mm
22:04 7.8 °C 4.9 °C 1010 hPa North 14.5 km/h 11.9 km/h 82 % 0 mm
22:09 7.8 °C 4.7 °C 1010 hPa NW 20.4 km/h 10.8 km/h 81 % 0 mm
22:14 7.8 °C 4.7 °C 1010 hPa NW 14.8 km/h 11.4 km/h 81 % 0 mm
22:19 7.7 °C 4.7 °C 1010 hPa North 16.7 km/h 9.2 km/h 81 % 0 mm
22:24 7.7 °C 4.6 °C 1010 hPa NW 14.8 km/h 10.6 km/h 81 % 0 mm
22:29 7.5 °C 4.4 °C 1010 hPa NW 13 km/h 8.5 km/h 81 % 0 mm
22:34 7.4 °C 4.6 °C 1010 hPa NW 13 km/h 8 km/h 82 % 0 mm
22:39 7.4 °C 4.5 °C 1010 hPa NW 13 km/h 11.4 km/h 82 % 0 mm
22:44 7.4 °C 4.3 °C 1010 hPa NW 16.7 km/h 10.5 km/h 81 % 0 mm
22:49 7.4 °C 4.3 °C 1010 hPa North 16.7 km/h 11.7 km/h 81 % 0 mm
22:54 7.4 °C 4.2 °C 1009.7 hPa NW 14.5 km/h 10.9 km/h 80 % 0 mm
22:59 7.4 °C 4.2 °C 1009.7 hPa North 16.7 km/h 10 km/h 80 % 0 mm
23:04 7.4 °C 4.2 °C 1010 hPa NW 18.5 km/h 11.6 km/h 80 % 0 mm
23:09 7.4 °C 4.1 °C 1010 hPa WNW 18.5 km/h 16.6 km/h 79 % 0 mm
23:14 7.4 °C 4 °C 1010 hPa WNW 18.5 km/h 15 km/h 79 % 0 mm
23:19 7.4 °C 4 °C 1010 hPa WNW 18.5 km/h 16.1 km/h 79 % 0 mm
23:24 7.4 °C 4 °C 1010 hPa WNW 20.4 km/h 15.4 km/h 79 % 0 mm
23:29 7.3 °C 3.9 °C 1009.7 hPa WNW 22.2 km/h 15.8 km/h 79 % 0 mm
23:34 7.4 °C 4 °C 1009.7 hPa WNW 20.4 km/h 16.1 km/h 79 % 0 mm
23:39 7.4 °C 4 °C 1009.7 hPa WNW 18.5 km/h 11.6 km/h 79 % 0 mm
23:44 7.3 °C 3.9 °C 1009.7 hPa North 13 km/h 11.9 km/h 79 % 0 mm
23:49 7.4 °C 3.8 °C 1009.7 hPa WNW 22.5 km/h 13 km/h 78 % 0 mm
23:54 7.5 °C 3.9 °C 1009.7 hPa North 18.5 km/h 15.9 km/h 78 % 0 mm
23:59 7.6 °C 3.9 °C 1009.7 hPa North 18.5 km/h 14.5 km/h 78 % 0 mm
Ararat Weather
Compliments of Weather Underground - 2.25 mb
Click here to send mail.


ABOUT

Live weather data from Ararat, Victoria, Australia, 3377
Data uploaded from Cumulus every 5 minutes to Weather Underground.
This site then downloads the raw data for formatting and display.
Metric and imperial data can be displayed. Graphs and historical data available.
Includes Sun and Moon times and rain image live from BOM.

Check out Ararat Weather on Facebook, Twitter and Google +

Help support ongoing costs by checking out the ads





Follow @AraratWeather